プライン彗星

C/2020 H2 ( Pruyne )

English version
Home page
Updated on March 4, 2025

---------------------------------------------------------------------

・ プロフィール

発見日 2020年4月26日
発見光度 16.2等
発見者 Theodore A. Pruyne (Catalina Sky Survey)

・ 写真集

・ 軌道要素

Epoch 2024 Oct. 17.0 TT = JDT 2460600.5                                         
T 2020 Apr. 27.44118 TT                                 Pike                    
q   0.8289762            (2000.0)            P               Q                  
z  +0.0053931      Peri.   26.60890     -0.13398522     -0.56553805             
 +/-0.0001054      Node   277.67242     -0.99057024     +0.05272334             
e   0.9955292      Incl.  124.80326     -0.02861064     +0.82303521             
From 121 observations 2020 Apr. 26-June 16, mean residual 0".7.                 

・ 星図

・ 光度変化

        m1 = 15.5 + 5 logΔ + 20.0 log r

---------------------------------------------------------------------

軌道要素はM.P.E.C. 2025-A144に掲載されたものです。
星図はステラナビゲータ Ver.10 (アストロアーツ) で作成したものです。
光度グラフはComet for Windowsで作成したものです。

---------------------------------------------------------------------

Copyright(C) Seiichi Yoshida (comet@aerith.net). All rights reserved.